Zurück zum Katalog

COSMOS 970 DEB

AktivLEO
NORAD 14907·DEBRIS·🇷🇺 Russia

Gestartet Dec 21, 1977 von Baikonur Cosmodrome

Loading…

Nächste Überflüge (nächste 24 Stunden)

TLE

AktuellSource: Space-Track

Epoche: Sep 14, 2026, 01:47 UTC

1 14907U 77121BL  26257.07468427 -.00000053  00000-0  31466-4 0  9992
2 14907  66.0273 137.2958 0065592  25.6046 123.2920 13.55196795213402

Verfolge COSMOS 970 DEB in Echtzeit mit AllMySat

Download on the App Store